Overview Statistics Trail Chart Weather Telemetry Raw packets
 

This is the latest recevied weather packets stored in our database for station/object N6OIM. If no packets are shown the sender has not sent any weather packets the latest 10 day(s).

<< 17 18 19 20 21 22 23 >>
Time Temp. Humidity Pressure Rain* Wind** Luminosity Snow
1788562123 26.67° C 37% 1011.6 hPa 0 mm - - -
1788561800 26.67° C 38% 1011.7 hPa 0 mm - - -
1788561510 26.67° C 38% 1011.6 hPa 0 mm - - -
1788561199 26.11° C 38% 1011.6 hPa 0 mm - - -
1788560912 26.11° C 40% 1011.5 hPa 0 mm - - -
1788560601 26.11° C 40% 1011.6 hPa 0 mm - - -
1788560309 26.11° C 40% 1011.6 hPa 0 mm - - -
1788559999 26.11° C 39% 1011.6 hPa 0 mm - - -
1788559710 26.11° C 39% 1011.8 hPa 0 mm - - -
1788559404 26.11° C 39% 1011.7 hPa 0 mm - - -
1788559113 26.11° C 40% 1011.7 hPa 0 mm - - -
1788558803 26.11° C 39% 1011.8 hPa 0 mm - - -
1788558511 25.56° C 40% 1011.7 hPa 0 mm - - -
1788558203 25.56° C 40% 1011.7 hPa 0 mm - - -
1788557912 25.56° C 40% 1011.7 hPa 0 mm - - -
1788557600 25.56° C 41% 1011.6 hPa 0 mm - - -
1788557308 25.56° C 42% 1011.7 hPa 0 mm - - -
1788556997 25.56° C 41% 1011.8 hPa 0 mm - - -
1788556708 25.56° C 42% 1011.7 hPa 0 mm - - -
1788556396 25.56° C 43% 1011.8 hPa 0 mm - - -
1788556106 25° C 43% 1011.7 hPa 0 mm - - -
1788555815 25° C 46% 1011.7 hPa 0 mm - - -
1788555503 25° C 44% 1011.7 hPa 0 mm - - -
1788555212 25° C 45% 1011.8 hPa 0 mm - - -
1788554900 24.44° C 45% 1011.8 hPa 0 mm - - -

* Rain latest hour (hover to see other rain measurements)
** Current wind speed in m/s (hover to see current wind gust speed)